This demonstration page uses our WeatherBlox Daily Observations layout. Learn more.

Left ArrowRight Arrow

Hourly Observations for April 5, 2017

Temp ( °F °C ) Dew Point ( °F °C ) Humidity (%) Winds ( mph kmh ) Pressure ( in mb ) Visibility ( mi km ) Precip ( " mm )
12:15 am 00:15 Partly Cloudy 46 8 32 0 57 57 N 21 33 29.97 1015 10 16 0.00 0.00
12:35 am 00:35 Clear 46 8 32 0 57 57 N 21 33 29.94 1014 10 16 0.00 0.00
12:55 am 00:55 Clear 45 7 34 1 66 66 N 20 31 29.97 1015 10 16 0.00 0.00
1:15 am 01:15 Clear 45 7 34 1 66 66 NNW 20 31 29.97 1015 10 16 0.00 0.00
1:35 am 01:35 Clear 45 7 32 0 61 61 NNW 21 33 29.97 1015 10 16 0.00 0.00
1:55 am 01:55 Clear 45 7 32 0 61 61 NNW 22 35 30.00 1016 10 16 0.00 0.00
2:15 am 02:15 Clear 43 6 32 0 66 66 NNW 20 31 30.00 1016 10 16 0.00 0.00
2:35 am 02:35 Clear 43 6 32 0 66 66 NNW 18 30 30.00 1016 10 16 0.00 0.00
2:55 am 02:55 Clear 43 6 32 0 66 66 NNW 20 31 30.00 1016 10 16 0.00 0.00
3:15 am 03:15 Clear 43 6 30 -1 61 61 NNW 17 28 30.00 1016 10 16 0.00 0.00
3:35 am 03:35 Clear 43 6 30 -1 61 61 NNW 17 28 30.00 1016 10 16 0.00 0.00
3:55 am 03:55 Clear 43 6 30 -1 61 61 NNW 18 30 30.00 1016 10 16 0.00 0.00
4:15 am 04:15 Clear 43 6 30 -1 61 61 NNW 16 26 30.00 1016 10 16 0.00 0.00
4:35 am 04:35 Clear 41 5 30 -1 66 66 NNW 16 26 30.03 1017 10 16 0.00 0.00
4:55 am 04:55 Clear 41 5 30 -1 66 66 NNW 14 22 30.03 1017 10 16 0.00 0.00
5:15 am 05:15 Clear 41 5 30 -1 66 66 NNW 16 26 30.03 1017 10 16 0.00 0.00
5:35 am 05:35 Clear 41 5 30 -1 66 66 NNW 16 26 30.03 1017 10 16 0.00 0.00
5:55 am 05:55 Clear 41 5 30 -1 66 66 NNW 15 24 30.03 1017 10 16 0.00 0.00
6:15 am 06:15 Clear 41 5 30 -1 66 66 NNW 16 26 30.03 1017 10 16 0.00 0.00
6:35 am 06:35 Clear 39 4 30 -1 70 70 NNW 15 24 30.06 1018 10 16 0.00 0.00
6:55 am 06:55 Clear 39 4 28 -2 65 65 NNW 13 20 30.09 1019 10 16 0.00 0.00
7:15 am 07:15 Sunny 39 4 28 -2 65 65 NW 12 19 30.09 1019 10 16 0.00 0.00
7:35 am 07:35 Mostly Sunny 39 4 28 -2 65 65 NW 12 19 30.09 1019 10 16 0.00 0.00
7:55 am 07:55 Mostly Cloudy 39 4 28 -2 65 65 NNW 15 24 30.09 1019 10 16 0.00 0.00
8:15 am 08:15 Partly Cloudy 41 5 28 -2 61 61 NW 15 24 30.06 1018 10 16 0.00 0.00
8:35 am 08:35 Sunny 39 4 28 -2 65 65 NW 15 24 30.09 1019 10 16 0.00 0.00
8:55 am 08:55 Sunny 39 4 28 -2 65 65 NW 16 26 30.12 1020 10 16 0.00 0.00
9:15 am 09:15 Sunny 41 5 30 -1 66 66 NW 21 33 30.06 1018 10 16 0.00 0.00
9:35 am 09:35 Sunny 45 7 30 -1 57 57 NW 18 30 30.06 1018 9 14 0.00 0.00
9:55 am 09:55 Sunny 46 8 32 0 57 57 NW 21 33 30.06 1018 9 14 0.00 0.00
10:15 am 10:15 Sunny 46 8 32 0 57 57 NNW 20 31 30.06 1018 10 16 0.00 0.00
10:35 am 10:35 Sunny 50 10 34 1 54 54 NNW 22 35 30.03 1017 10 16 0.00 0.00
10:55 am 10:55 Sunny 50 10 34 1 54 54 NNW 18 30 30.03 1017 10 16 0.00 0.00
11:15 am 11:15 Sunny 52 11 34 1 50 50 NNW 20 31 30.06 1018 10 16 0.00 0.00
11:35 am 11:35 Sunny 52 11 34 1 50 50 NNW 18 30 30.06 1018 10 16 0.00 0.00
11:55 am 11:55 Sunny 54 12 34 1 47 47 NNW 17 28 30.03 1017 10 16 0.00 0.00
12:15 pm 12:15 Partly Cloudy 54 12 30 -1 41 41 NNW 21 33 30.03 1017 10 16 0.00 0.00
12:35 pm 12:35 Mostly Cloudy 55 13 32 0 41 41 N 18 30 30.00 1016 8 13 0.00 0.00
12:55 pm 12:55 Mostly Cloudy 55 13 30 -1 38 38 NNW 20 31 30.00 1016 10 16 0.00 0.00
1:15 pm 13:15 Cloudy 55 13 30 -1 38 38 NNW 24 39 30.00 1016 N/A 0.00 0.00
1:35 pm 13:35 Mostly Cloudy 55 13 30 -1 38 38 NNW 21 33 30.00 1016 8 13 0.00 0.00
1:55 pm 13:55 Partly Cloudy 55 13 28 -2 36 36 NNW 17 28 30.00 1016 8 13 0.00 0.00
2:15 pm 14:15 Partly Cloudy 57 14 30 -1 36 36 NNW 17 28 30.00 1016 9 14 0.00 0.00
2:35 pm 14:35 Mostly Cloudy 55 13 28 -2 36 36 NW 21 33 30.00 1016 8 13 0.00 0.00
2:55 pm 14:55 Mostly Sunny 55 13 28 -2 36 36 NW 20 31 30.00 1016 6 10 0.00 0.00
3:15 pm 15:15 Partly Cloudy 57 14 27 -3 31 31 NNW 15 24 30.00 1016 5 8 0.00 0.00
3:35 pm 15:35 Partly Cloudy 55 13 27 -3 33 33 NNW 18 30 30.00 1016 7 11 0.00 0.00
3:55 pm 15:55 Partly Cloudy 57 14 27 -3 31 31 N 20 31 29.97 1015 8 13 0.00 0.00
4:15 pm 16:15 Mostly Sunny 55 13 25 -4 31 31 NNW 16 26 29.97 1015 10 16 0.00 0.00
4:35 pm 16:35 Partly Cloudy 57 14 25 -4 29 29 N 20 31 29.97 1015 10 16 0.00 0.00
4:55 pm 16:55 Mostly Cloudy 59 15 27 -3 29 29 N 23 37 29.97 1015 10 16 0.00 0.00
5:15 pm 17:15 Mostly Cloudy 57 14 25 -4 29 29 NW 20 31 29.97 1015 10 16 0.00 0.00
5:35 pm 17:35 Mostly Cloudy 55 13 21 -6 26 26 NNW 20 31 30.00 1016 10 16 0.00 0.00
5:55 pm 17:55 Mostly Sunny 55 13 25 -4 31 31 N 21 33 30.00 1016 10 16 0.00 0.00
6:15 pm 18:15 Sunny 55 13 25 -4 31 31 N 20 31 30.00 1016 10 16 0.00 0.00
6:35 pm 18:35 Sunny 55 13 19 -7 24 24 NNW 15 24 30.00 1016 10 16 0.00 0.00
6:55 pm 18:55 Sunny 55 13 25 -4 31 31 N 15 24 30.00 1016 10 16 0.00 0.00
7:15 pm 19:15 Sunny 54 12 25 -4 33 33 N 16 26 30.03 1017 10 16 0.00 0.00
7:35 pm 19:35 Sunny 54 12 25 -4 33 33 NNW 10 17 30.06 1018 10 16 0.00 0.00
7:55 pm 19:55 Sunny 52 11 23 -5 32 32 NNW 9 15 30.06 1018 10 16 0.00 0.00
8:15 pm 20:15 Clear 50 10 23 -5 35 35 N 9 15 30.06 1018 10 16 0.00 0.00
8:35 pm 20:35 Clear 48 9 25 -4 40 40 NNW 8 13 30.06 1018 10 16 0.00 0.00
8:55 pm 20:55 Clear 48 9 25 -4 40 40 N 8 13 30.12 1020 10 16 0.00 0.00
9:15 pm 21:15 Clear 45 7 25 -4 46 46 N 12 19 30.12 1020 10 16 0.00 0.00
9:35 pm 21:35 Clear 41 5 25 -4 53 53 NNE 9 15 30.15 1021 10 16 0.00 0.00
9:55 pm 21:55 Clear 39 4 25 -4 56 56 NE 10 17 30.15 1021 10 16 0.00 0.00
10:15 pm 22:15 Clear 37 3 27 -3 65 65 NE 6 9 30.18 1022 10 16 0.00 0.00
10:35 pm 22:35 Clear 39 4 27 -3 61 61 NE 5 7 30.18 1022 10 16 0.00 0.00
10:55 pm 22:55 Clear 37 3 27 -3 65 65 NNE 7 11 30.18 1022 10 16 0.00 0.00
11:15 pm 23:15 Clear 39 4 27 -3 61 61 NNW 3 6 30.18 1022 10 16 0.00 0.00
11:35 pm 23:35 Clear 39 4 28 -2 65 65 NNW 5 7 30.18 1022 10 16 0.00 0.00
11:55 pm 23:55 Clear 39 4 28 -2 65 65 Calm 30.18 1022 10 16 0.00 0.00

Powered by AerisWeather